Total_Precipitation_Accumulation
2.53 2.58 2.57 2.52 2.32 2.66 3.11 3.38 3.08 3.36 3.36 2.95 2.62 2.49 2.46 2.39 2.58 2.80 2.62 2.73 2.69 2.69 3.01 3.16 3.01 2.76 2.54 2.18 1.92 1.70 1.47 1.35 1.23 1.01 0.84 0.80 0.75 0.69 0.66 0.64 0.62 0.58 0.54
3.08 3.11 2.95 2.85 2.52 2.53 2.84 3.11 3.14 3.51 3.34 3.14 2.53 2.45 2.39 2.51 2.70 2.72 2.67 3.13 3.09 2.86 2.91 3.17 3.34 3.26 3.03 2.85 2.53 2.22 1.92 1.74 1.64 1.32 1.01 0.90 0.85 0.79 0.76 0.77 0.82 0.74 0.60
3.58 3.45 3.23 2.86 2.67 2.70 2.90 2.86 2.90 3.03 2.93 2.83 2.58 2.63 2.58 2.54 2.48 2.55 2.69 2.89 2.80 2.58 2.63 2.84 3.22 3.47 3.62 3.66 3.43 3.18 2.62 2.12 1.92 1.60 1.25 1.01 0.88 0.82 0.81 0.82 0.89 0.85 0.71
3.39 3.41 3.10 2.70 2.74 2.78 2.84 2.90 2.75 2.84 2.86 2.88 2.82 2.58 2.63 2.62 2.26 2.30 2.41 2.40 2.51 2.27 2.41 2.59 2.81 3.09 3.71 4.29 4.58 4.51 3.81 2.89 2.31 1.96 1.66 1.33 1.11 0.96 0.86 0.86 0.94 0.94 0.78
3.21 3.37 3.07 2.91 2.83 2.81 2.68 2.44 2.82 2.98 3.00 2.98 2.65 2.52 2.30 2.13 1.97 1.80 1.81 1.68 1.88 2.07 2.30 2.38 2.60 2.78 3.45 4.37 5.18 5.47 5.05 4.05 3.21 2.64 2.33 1.99 1.68 1.38 1.13 1.04 1.01 0.94 0.84
2.89 3.10 2.83 2.75 2.86 2.94 2.75 2.72 3.01 3.06 2.78 2.83 2.45 2.33 2.16 1.80 1.71 1.64 1.52 1.50 1.50 1.46 1.80 2.27 2.70 2.45 2.83 3.64 4.43 5.07 5.48 5.13 4.26 3.59 3.08 2.68 2.35 2.01 1.59 1.40 1.28 1.20 1.12
2.53 2.89 2.64 2.90 2.78 2.68 2.52 2.46 2.58 2.64 2.38 2.60 2.81 2.35 1.85 1.57 1.51 1.42 1.42 1.49 1.43 1.51 1.83 2.28 2.58 2.73 2.59 2.57 3.00 3.63 4.67 5.15 4.87 4.25 3.71 3.28 2.90 2.58 2.10 1.81 1.63 1.46 1.39
2.63 2.49 2.67 2.48 2.44 2.52 2.33 2.23 2.43 2.43 2.18 2.51 2.65 2.64 2.06 1.81 1.56 1.15 1.28 1.42 1.51 1.70 1.76 1.91 2.31 2.63 2.56 2.85 2.41 2.33 3.30 4.25 4.91 4.88 4.31 3.68 3.20 2.78 2.37 2.12 1.85 1.56 1.40
2.81 2.69 2.57 2.38 2.31 2.14 2.21 2.26 2.32 2.37 2.30 2.29 2.35 2.59 2.22 1.84 1.56 1.20 1.20 1.43 1.74 1.95 1.93 2.00 2.02 2.23 2.30 2.61 2.60 2.40 2.37 2.85 3.78 4.74 4.84 4.19 3.39 2.74 2.35 2.28 2.16 1.85 1.60
2.95 2.68 2.51 2.29 2.12 1.99 2.19 1.91 2.00 2.30 2.42 2.16 2.17 2.16 2.08 2.16 2.06 1.67 1.34 1.27 1.54 1.74 1.85 1.75 1.78 1.94 2.15 2.45 2.57 2.62 2.38 2.31 2.80 3.79 4.44 4.43 3.89 3.20 2.72 2.67 2.89 2.78 2.28
2.69 2.39 2.29 2.21 2.07 1.95 1.95 1.91 2.18 2.19 2.18 2.13 2.20 2.18 2.27 2.40 2.23 2.06 1.72 1.62 1.73 1.73 1.68 1.64 1.69 1.81 2.05 2.34 2.65 2.69 2.89 2.58 2.42 2.65 3.14 3.55 3.75 3.53 3.19 3.26 3.78 4.06 3.69
2.34 2.18 2.10 2.16 2.02 1.90 1.90 1.90 2.03 2.10 2.21 2.30 2.32 2.31 2.36 2.34 2.34 2.53 2.21 2.00 1.95 1.71 1.66 1.69 1.78 1.90 2.05 2.27 2.31 2.52 2.68 2.74 2.60 2.51 2.58 2.75 3.03 3.28 3.43 3.66 4.10 4.52 4.72
1.90 1.90 1.97 2.08 1.92 1.86 1.93 2.07 2.07 2.04 2.19 2.29 2.24 2.32 2.40 2.34 2.46 2.63 2.56 2.24 2.04 1.82 1.86 1.86 1.84 2.04 2.08 2.36 2.60 2.55 2.29 2.37 2.31 2.26 2.24 2.26 2.32 2.62 2.92 3.17 3.64 4.16 4.62
1.68 1.74 1.94 2.00 1.93 1.86 1.84 2.19 2.18 2.19 2.28 2.27 2.16 2.45 2.50 2.30 2.51 2.72 2.82 2.83 2.51 2.34 2.39 2.38 2.12 2.09 2.19 2.33 2.56 2.42 2.18 2.18 1.89 1.80 1.78 1.83 1.87 1.99 2.18 2.42 2.73 3.05 3.34
1.75 1.82 1.89 2.07 2.15 2.22 2.24 2.38 2.31 2.31 2.49 2.46 2.41 2.57 2.57 2.44 2.48 2.61 2.85 3.05 3.05 2.85 2.74 2.66 2.38 2.25 2.21 2.18 2.32 2.19 2.26 2.16 1.73 1.48 1.41 1.43 1.42 1.45 1.52 1.68 1.91 2.17 2.33
1.86 1.90 1.91 1.98 2.12 2.24 2.29 2.43 2.42 2.48 2.66 2.67 2.72 2.80 2.68 2.45 2.56 2.62 2.76 3.03 3.27 3.30 3.04 2.67 2.45 2.33 2.32 2.06 2.11 1.91 1.94 1.85 1.52 1.37 1.27 1.23 1.20 1.21 1.23 1.29 1.41 1.65 1.84
1.85 1.89 1.90 1.87 1.87 2.02 2.23 2.42 2.40 2.56 2.69 2.74 2.73 2.64 2.52 2.56 2.72 2.66 2.79 2.94 3.15 3.36 3.12 2.79 2.65 2.59 2.58 2.38 2.21 1.91 1.67 1.54 1.42 1.48 1.33 1.19 1.15 1.16 1.20 1.26 1.33 1.44 1.61
1.90 1.87 1.85 1.83 1.80 1.90 2.16 2.34 2.46 2.71 2.83 2.75 2.66 2.61 2.49 2.60 2.71 2.68 2.75 2.76 2.82 3.10 3.02 2.82 2.76 2.80 2.68 2.44 2.32 2.12 1.76 1.57 1.57 1.67 1.51 1.34 1.25 1.23 1.21 1.21 1.30 1.39 1.50
1.83 1.79 1.81 1.87 2.00 2.12 2.32 2.44 2.55 2.72 2.68 2.58 2.60 2.52 2.41 2.48 2.44 2.50 2.54 2.53 2.53 2.63 2.80 2.72 2.63 2.70 2.62 2.41 2.32 2.16 2.03 2.11 1.92 1.76 1.62 1.47 1.36 1.30 1.29 1.23 1.25 1.36 1.46
1.59 1.64 1.85 2.08 2.24 2.37 2.46 2.51 2.51 2.49 2.48 2.40 2.30 2.22 2.22 2.32 2.39 2.38 2.31 2.31 2.37 2.52 2.61 2.63 2.60 2.68 2.69 2.65 2.50 2.37 2.39 2.34 2.17 1.74 1.62 1.44 1.34 1.24 1.18 1.12 1.14 1.31 1.45
1.57 1.78 1.95 2.05 2.10 2.16 2.24 2.35 2.35 2.30 2.27 2.19 2.06 1.87 1.90 2.19 2.31 2.29 2.13 2.21 2.29 2.40 2.48 2.59 2.63 2.72 2.78 2.92 2.69 2.43 2.35 2.40 2.27 2.04 1.86 1.62 1.47 1.35 1.31 1.28 1.23 1.25 1.29
1.76 1.93 1.95 1.93 1.89 1.64 1.74 1.86 1.92 1.96 1.98 1.94 1.81 1.73 1.74 1.83 1.85 1.90 1.91 1.92 1.96 2.04 2.24 2.50 2.61 2.61 2.58 2.68 2.74 2.61 2.50 2.46 2.43 2.33 2.35 2.24 1.90 1.81 1.69 1.55 1.44 1.20 1.08
1.95 2.07 2.04 1.97 1.85 1.76 1.66 1.55 1.55 1.63 1.76 1.77 1.77 1.82 1.61 1.46 1.57 1.60 1.72 1.71 1.64 1.70 1.82 2.08 2.29 2.31 2.39 2.39 2.61 2.63 2.67 2.74 2.71 2.66 2.65 2.70 2.36 2.05 1.81 1.73 1.63 1.29 1.13
2.19 2.22 2.18 2.08 1.99 1.92 1.83 1.64 1.62 1.56 1.67 1.70 1.70 1.72 1.66 1.56 1.54 1.64 1.71 1.66 1.52 1.46 1.44 1.42 1.65 1.93 2.13 2.34 2.39 2.46 2.59 2.67 2.69 2.53 2.49 2.59 2.43 2.26 1.94 1.65 1.52 1.33 1.14
2.31 2.30 2.33 2.23 2.15 2.18 2.02 1.67 1.51 1.47 1.63 1.67 1.67 1.60 1.56 1.52 1.56 1.44 1.42 1.45 1.44 1.41 1.26 1.25 1.33 1.54 1.73 1.78 1.97 2.24 2.46 2.46 2.42 2.21 2.03 2.14 2.21 2.20 2.15 1.89 1.50 1.37 1.16
2.41 2.41 2.35 2.32 2.22 2.18 2.08 1.58 1.34 1.33 1.52 1.58 1.65 1.61 1.50 1.37 1.35 1.23 1.23 1.38 1.36 1.34 1.35 1.28 1.19 1.22 1.30 1.45 1.52 1.60 1.91 2.12 2.04 2.00 1.75 1.66 1.65 1.74 1.90 1.73 1.45 1.35 1.30